www.pogodaiklimat.ru

Погода и климат >> Архив погоды >> Россия >> Магаданская область >> Озеро Джека Лондона


ПОГОДА на Озере Джека Лондона

  • Прогноз погоды на Озере Джека Лондона
  • Монитор погоды на Озере Джека Лондона

АРХИВ ПОГОДЫ на Озере Джека Лондона

Время (UTC), дата Ветер
(напр.,м/с)
 
Видим.   Явления Облачность Т
(С)
Тd
(С)
f
(%)
Тe
(С)
Тes
(С)
Комфортность P
(гПа)
Po
(гПа)
Тmin
(С)
Tmax
(С)
R
(мм)
R24
(мм)
S
(см)
21 16.05 штиль 0 50 км 3/0
[Ci fib]
+3.1 -2.2 68 +2 +7 1016.7 920.9 -2.8 34
00 17.05 ЮВ 3 н/о н/о +7.1 -2.4 51 +5 +5 1015.5 921.3
03 17.05 ЮВ 4 50 км 3/1 600 м
[Cu hum Ci fib]
+7.8 -0.7 55 +5 +11 1013.8 920.0
06 17.05 Ю 5 н/о н/о +14.6 -1.1 34 +13 +13 1010.1 918.7
09 17.05 ЮЗ 5-10
{10}
50 км 6/0
[Ci fib]
+12.5 -2.9 34 +11 +11 1010.8 918.7 +14.9
12 17.05 ЮЗ 4
{13}
н/о н/о +9.0 -3.2 42 +7 +7 1013.4 920.0
15 17.05 Ю 3
{12}
50 км 10/10 600 м
[Cb cap]
+4.6 -1.6 64 +1 +1 1015.0 920.0
18 17.05 В 5 н/о н/о +3.2 -1.5 71 -2 -2 1015.5 920.0
21 17.05 ЮВ 5 50 км 10/10 600 м
[Cb cap]
+4.1 -0.4 72 -1 -1 1013.5 918.4 +3.2 28
00 18.05 ЮВ 7 н/о н/о +5.7 +0.9 71 +1 +1 1013.1 918.7
03 18.05 ЮВ 7 50 км 9/9 600 м
[Cb cap]
+6.9 +1.4 68 +2 +3 1012.7 918.7
06 18.05 Ю 1
{12}
н/о н/о +12.3 +1.3 47 +13 +13 1009.3 917.3
09 18.05 С 5 50 км 10/10 600 м
[Cb cap]
+6.4 +0.9 68 +2 +2 1009.9 916.0 +12.7
12 18.05 З 2 н/о н/о +1.9 -1.2 80 -1 -1 1012.9 917.3
15 18.05 С 1 50 км 10/0
[Ac und]
-0.2 -2.1 87 -2 -2 1013.7 917.3
18 18.05 ЮВ 1 н/о н/о -1.5 -3.1 89 -4 -4 1012.8 916.0
21 18.05 С 6 20 км слаб. ливневой снег 10/10 600 м
[Cb cap]
-2.0 -4.2 85 -9 -9 1009.8 913.0 -2.1 0.0 25
00 19.05 С 9-12
{12}
н/о н/о -2.2 -4.5 84 -11 -11 1008.6 912.0 -2.2
03 19.05 С 9-12
{13}
4000 м слаб. ливневой снег {метель} 10/10 600 м
[Cb cap]
-2.5 -5.1 82 -11 -11 1005.8 909.3
06 19.05 СЗ 7-10
{13}
н/о н/о -2.9 -5.1 85 -11 -11 1003.0 906.7
09 19.05 СЗ 6-10
{10}
2000 м слаб. ливневой снег {метель} 10/10 600 м
[Cb cap]
-3.9 -5.7 87 -11 -11 1003.4 906.7 -1.7 3
12 19.05 СЗ 8-12
{12}
н/о н/о -4.8 -7.2 83 -14 -14 1003.8 906.7
15 19.05 С 6-11
{13}
4000 м слаб. ливневой снег {метель} 10/10 600 м
[Cb cap]
-5.3 -7.7 83 -13 -13 1003.6 906.3
18 19.05 С 7-14
{14}
н/о н/о -5.9 -9.1 78 -14 -14 1005.7 908.0
21 19.05 СЗ 6-10
{14}
20 км слаб. ливневой снег {метель} 10/10 600 м
[Cb cap]
-6.0 -9.3 77 -14 -14 1006.7 908.7 -6.2 29 27
00 20.05 СЗ 5
{11}
н/о н/о -5.7 -8.8 79 -13 -13 1010.0 912.0 -6.3
03 20.05 С 3 4000 м слаб. ливневой снег {метель} 10/10 600 м
[Cb cap]
-3.8 -8.3 71 -9 -9 1010.7 913.3
06 20.05 СВ 2 н/о н/о -2.7 -7.4 70 -6 -6 1013.3 916.0
09 20.05 С 3 10 км {ливн. осадки} 9/9 600 м
[Cb cap]
-3.1 -7.2 73 -8 -8 1016.4 918.7 -2.2 2
12 20.05 СВ 2 н/о н/о -5.0 -7.5 83 -9 -9 1019.1 920.3
15 20.05 ЮВ 1 50 км ясно -9.6 -10.7 92 -12 -12 1023.4 922.7
18 20.05 СЗ 1 н/о н/о -12.5 -13.4 93 -15 -15 1026.0 924.0
21 20.05 ЮЗ 1 50 км ясно -5.6 -9.7 73 -8 -3 1024.7 925.3 -12.6 27
00 21.05 ЮВ 3 н/о н/о -0.2 -6.6 62 -4 1022.6 925.3
03 21.05 ЮВ 4 50 км 8/0
[Ci fib]
+2.8 -5.1 56 -1 +1 1020.1 924.0
06 21.05 ЮВ 4 н/о н/о +4.3 -3.9 55 +1 +1 1019.5 924.0
09 21.05 ЮВ 4 50 км 8/0
[Ci fib]
+4.3 -4.2 54 +1 +1 1019.5 924.0 +5.0
12 21.05 штиль 0 н/о н/о +0.7 -4.1 70 -0 1022.3 925.3
15 21.05 З 1 50 км 10/0
[Cs]
-0.5 -3.0 83 -2 -2 1021.3 924.0
18 21.05 Ю 1 н/о н/о -2.3 -3.9 89 -5 -5 1021.9 924.0
21 21.05 ЮЗ 1 50 км 10/10 600 м
[Cb cap]
+1.1 -3.2 73 -1 -1 1019.0 922.4 -2.6 24
00 22.05 ЮВ 3 н/о н/о +4.4 -2.9 59 +1 +1 1018.0 922.7
03 22.05 ЮВ 1 4000 м слаб. ливневой дождь 10/10 600 м
[Cb cap]
+2.8 +1.2 89 +1 +1 1017.0 921.3
06 22.05 ЮВ 1 н/о н/о +2.2 +1.0 92 0 1015.8 920.0
09 22.05 З 3 4000 м слаб. ливневой снег 10/10 600 м
[Cb cap]
0.0 -0.1 99 -5 -5 1015.2 918.7 +4.7 5
12 22.05 СЗ 2 н/о н/о +0.2 +0.1 99 -4 -4 1012.1 916.0
15 22.05 ЮВ 9-12
{13}
4000 м слаб. ливневой дождь 10/10 600 м
[Cb cap]
+3.2 +2.0 92 -4 -4 1006.5 911.9
18 22.05 ЮВ 8-10
{12}
н/о н/о +3.2 +1.6 89 -3 -3 1008.0 913.3
21 22.05 ЮВ 7
{11}
50 км 8/8 600 м
[Cb cap]
+3.5 +0.9 83 -3 -2 1006.4 911.8 0.0 4 15
00 23.05 ЮВ 7
{11}
н/о н/о +4.6 +1.3 79 -1 -1 1006.1 912.0
03 23.05 ЮВ 6 50 км 10 баллов +4.1 +0.8 79 -1 -1 1004.8 910.7
06 23.05 ЮВ 6
{11}
н/о н/о +2.9 +2.0 94 -3 -3 1003.7 909.3
09 23.05 В 6 10 км слаб. ливневой дождь 10/10 600 м
[Cb cap]
+2.7 +1.5 92 -3 -3 1002.3 908.0 +5.9 3
12 23.05 В 1 н/о н/о +1.9 +1.5 97 -0 1001.2 906.7
15 23.05 В 4 50 км 10 баллов +1.0 +0.3 95 -4 -4 1001.5 906.7

 

Местоположение метеостанции Озеро Джека Лондона (Магаданская область, Россия): широта 62.08 долгота 149.50 высота над уровнем моря 807 м.

В архиве по умолчанию представлена погода на Озере Джека Лондона за последнюю неделю. Архивные данные за месяц целиком и за предыдущие месяцы, начиная с января 2011 года, Вы можете получить, выбрав интересующий диапазон дат из раскрывающегося списка и нажав кнопку "Ввод!".


*Определитесь, кто Вы:
робот инопланетянин человек

Внимание! Время в таблицах - всемирное. Для получения местного времени необходимо прибавить поправку, которая равна 11 ч.

Смотрите также архив погоды в соседних городах и на ближайших метеорологических станциях:

Погода в Ягодной (Магаданская область, Россия) (48 км)
Погода в Усть-Бохапче (Магаданская область, Россия) (57 км)
Погода в Совхозе Эльген (Магаданская область, Россия) (98 км)
Погода в Колымской (Магаданская область, Россия) (103 км)
Погода в Сусумане (Магаданская область, Россия) (106 км)
Погода в Усть-Омчуге (Магаданская область, Россия) (107 км)
Погода в Среднекане (Магаданская область, Россия) (151 км)
Погода в Сеймчане (Магаданская область, Россия) (175 км)
Погода в Мадауне (Магаданская область, Россия) (177 км)
Погода в Талой (Магаданская область, Россия) (182 км)

Пояснения к столбцам:

Ветер - указаны скорость ветра в м/с - средняя за 10 мин, порывы в срок и между сроками (в фигурных скобках) и направление, откуда дует ветер: С - северный, СВ - северо-восточный, В - восточный, ЮВ - юго-восточный, Ю - южный, ЮЗ - юго-западный, З - западный, СЗ - северо-западный.
Видимость - горизонтальная дальность видимости в метрах или километрах. При видимости от 1 до 10 км при отсутствии осадков обычно наблюдается дымка, при ухудшении видимости до 1 км и менее - туман. В сухую погоду видимость может ухудшаться дымом, пылью или мглою.
Явления - указаны атмосферные явления, наблюдавшиеся в срок или в последний час перед сроком; фигурными скобками обозначены явления, наблюдавшиеся между сроками (за 1-3 часа до срока); квадратными скобками обозначены град или гололедные отложения с указанием их диаметра в мм.
Облачность - указаны через наклонную черту общая и нижняя облачность в баллах и высота нижней границы облаков в метрах; квадратными скобками обозначены формы облаков: Ci - перистые, Cs - перисто-слоистые, Cc - перисто-кучевые, Ac - высококучевые, As - высокослоистые, Sc - слоисто-кучевые, Ns - слоисто-дождевые, Cu - кучевые, Cb - кучево-дождевые. Подробнее классификацию облаков см. в Атласе облаков (PDF).
T - Температура воздуха - температура, измеренная на высоте 2 м над землей.
Td - Температура точки росы - температура, при понижении до которой содержащийся в воздухе водяной пар достигнет насыщения.
f - Относительная влажность воздуха - влажноcть воздуха, измеренная на высоте 2 м над землей.
Te - Эффективная температура - температура, которую ощущает одетый по сезону человек в тени. Характеристика душности погоды. При расчете учитывается влияние влажности воздуха и скорости ветра на теплоощущения человека.
Tes - Эффективная температура на солнце - температура, которую ощущает человек, с поправкой на солнечный нагрев. Характеристика знойности погоды. Зависит от высоты солнца над горизонтом, облачности и скорости ветра. Ночью, в пасмурную погоду, а также при ветре 12 м/с и более поправка равна нулю.
P - Атмосферное давление - приведенное к уровню моря атмосферное давление.
Po - Атмосферное давление - измеренное на уровне метеостанции атмосферное давление.
Tmin - Минимальная температура - минимум температуры воздуха на высоте 2 м над землей.
Tmax - Максимальная температура - максимум температуры воздуха на высоте 2 м над землей.
R - Количество осадков - Количество выпавших осадков за период времени, мм. При наведении курсора мыши на число - период времени, за который выпало указанное количество осадков.
R24 - Количество осадков - Количество выпавших осадков за 24 часа, мм.
S - Снежный покров - Высота снежного покрова, см. При наведении курсора мыши на число - состояние снежного покрова и степень покрытия местности в баллах.